When you browse on this site, cookies collect data to enhance your experience and personalize the content and advertising you see.
Visit our Privacy Policy to learn more. By continuing to use the site, you agree to this use of cookies and data.
  • In Portugal
  • List of Countries
  • For 7 days
  • Water Temperature
  • Satellite Maps
  • Weather Map
  • Weather Widgets
  • user-avatar
    Login

    Hourly Weather Janowiec

    Today, 23 July, Tuesday

    Time Temperature Precipitation Wind Pressure Humidity
    00:00 +16°C° 0 mm 1 mps 752 mmHg 78%
    01:00 +16°C° 0 mm 1 mps 752 mmHg 81%
    02:00 +16°C° 0.1 mm 1 mps 752 mmHg 84%
    03:00 +16°C° 0.1 mm 1 mps 752 mmHg 87%
    04:00 +15°C° 0.1 mm 1 mps 751 mmHg 91%
    05:00 +16°C° 0.1 mm 1 mps 751 mmHg 92%
    06:00 +16°C° 0.1 mm 1 mps 752 mmHg 93%
    07:00 +16°C° 0.1 mm 1 mps 752 mmHg 94%
    08:00 +18°C° 0.1 mm 1 mps 752 mmHg 94%
    09:00 +17°C° 0.1 mm 2 mps 752 mmHg 94%
    10:00 +18°C° 0.1 mm 2 mps 752 mmHg 94%
    11:00 +19°C° 0 mm 2 mps 752 mmHg 90%
    12:00 +20°C° 0 mm 3 mps 752 mmHg 87%
    13:00 +21°C° 0 mm 3 mps 752 mmHg 84%
    14:00 +22°C° 0 mm 3 mps 752 mmHg 80%
    15:00 +22°C° 0 mm 4 mps 752 mmHg 76%
    16:00 +23°C° 0 mm 4 mps 752 mmHg 71%
    17:00 +24°C° 0 mm 3 mps 751 mmHg 74%
    18:00 +22°C° 0 mm 3 mps 751 mmHg 77%
    19:00 +21°C° 0 mm 3 mps 751 mmHg 80%
    20:00 +20°C° 0 mm 2 mps 751 mmHg 85%
    21:00 +19°C° 0 mm 2 mps 751 mmHg 91%
    22:00 +18°C° 0 mm 2 mps 751 mmHg 96%
    23:00 +18°C° 0 mm 2 mps 751 mmHg 95%

    Tomorrow, 24 July, Wednesday

    Time Temperature Precipitation Wind Pressure Humidity
    00:00 +18°C° 0 mm 2 mps 751 mmHg 94%
    01:00 +18°C° 0 mm 2 mps 751 mmHg 93%
    02:00 +18°C° 0 mm 2 mps 751 mmHg 95%
    03:00 +17°C° 0 mm 2 mps 750 mmHg 96%
    04:00 +17°C° 0 mm 2 mps 750 mmHg 97%
    05:00 +18°C° 0 mm 2 mps 750 mmHg 92%
    06:00 +20°C° 0 mm 2 mps 751 mmHg 87%
    07:00 +21°C° 0 mm 2 mps 751 mmHg 82%
    08:00 +24°C° 0 mm 2 mps 751 mmHg 76%
    09:00 +25°C° 0 mm 2 mps 751 mmHg 69%
    10:00 +26°C° 0 mm 2 mps 751 mmHg 63%
    11:00 +27°C° 0.1 mm 2 mps 751 mmHg 60%
    12:00 +28°C° 0.1 mm 2 mps 751 mmHg 58%
    13:00 +29°C° 0.1 mm 2 mps 751 mmHg 55%
    14:00 +29°C° 0.1 mm 2 mps 751 mmHg 56%
    15:00 +28°C° 0.1 mm 3 mps 751 mmHg 58%
    16:00 +28°C° 0.1 mm 3 mps 751 mmHg 59%
    17:00 +27°C° 0 mm 3 mps 751 mmHg 65%
    18:00 +26°C° 0 mm 2 mps 750 mmHg 71%
    19:00 +24°C° 0 mm 2 mps 750 mmHg 77%
    20:00 +23°C° 0 mm 2 mps 751 mmHg 83%
    21:00 +20°C° 0 mm 2 mps 751 mmHg 89%
    22:00 +19°C° 0 mm 2 mps 751 mmHg 95%
    23:00 +19°C° 0 mm 1 mps 751 mmHg 95%

    Day after tomorrow, 25 July, Thursday

    Time Temperature Precipitation Wind Pressure Humidity
    00:00 +19°C° 0 mm 1 mps 751 mmHg 95%
    01:00 +19°C° 0 mm 1 mps 751 mmHg 96%
    02:00 +18°C° 0 mm 1 mps 751 mmHg 96%
    03:00 +18°C° 0 mm 1 mps 751 mmHg 95%
    04:00 +18°C° 0 mm 1 mps 751 mmHg 95%
    05:00 +19°C° 0 mm 1 mps 751 mmHg 90%
    06:00 +21°C° 0 mm 1 mps 751 mmHg 84%
    07:00 +22°C° 0 mm 1 mps 751 mmHg 79%
    08:00 +24°C° 0 mm 1 mps 752 mmHg 71%
    09:00 +26°C° 0 mm 1 mps 752 mmHg 63%
    10:00 +27°C° 0 mm 2 mps 752 mmHg 55%
    11:00 +28°C° 0 mm 2 mps 752 mmHg 51%
    12:00 +29°C° 0 mm 2 mps 752 mmHg 46%
    13:00 +30°C° 0 mm 2 mps 752 mmHg 42%
    14:00 +30°C° 0 mm 3 mps 752 mmHg 43%
    15:00 +29°C° 0 mm 3 mps 751 mmHg 43%
    16:00 +29°C° 0 mm 4 mps 751 mmHg 44%
    17:00 +27°C° 0 mm 3 mps 751 mmHg 50%
    18:00 +26°C° 0 mm 3 mps 751 mmHg 56%
    19:00 +24°C° 0 mm 3 mps 751 mmHg 62%
    20:00 +21°C° 0 mm 3 mps 751 mmHg 66%
    21:00 +20°C° 0 mm 2 mps 751 mmHg 71%
    22:00 +18°C° 0 mm 2 mps 751 mmHg 76%
    23:00 +18°C° 0 mm 2 mps 751 mmHg 78%

    26 July, Friday

    Time Temperature Precipitation Wind Pressure Humidity
    00:00 +17°C° 0 mm 2 mps 751 mmHg 80%
    01:00 +18°C° 0 mm 1 mps 751 mmHg 82%
    02:00 +16°C° 0 mm 2 mps 751 mmHg 86%
    03:00 +16°C° 0 mm 2 mps 751 mmHg 91%
    04:00 +15°C° 0 mm 2 mps 751 mmHg 95%
    05:00 +17°C° 0 mm 2 mps 751 mmHg 87%
    06:00 +19°C° 0 mm 3 mps 750 mmHg 80%
    07:00 +21°C° 0 mm 3 mps 750 mmHg 72%
    08:00 +22°C° 0 mm 3 mps 750 mmHg 63%
    09:00 +25°C° 0 mm 4 mps 751 mmHg 54%
    10:00 +26°C° 0 mm 4 mps 751 mmHg 46%
    11:00 +27°C° 0 mm 4 mps 750 mmHg 45%
    12:00 +28°C° 0 mm 4 mps 750 mmHg 44%
    13:00 +28°C° 0 mm 4 mps 750 mmHg 44%
    14:00 +28°C° 0 mm 4 mps 749 mmHg 44%
    15:00 +27°C° 0 mm 4 mps 749 mmHg 45%
    16:00 +27°C° 0 mm 4 mps 749 mmHg 46%
    17:00 +26°C° 0 mm 4 mps 749 mmHg 52%
    18:00 +23°C° 0 mm 4 mps 749 mmHg 58%
    19:00 +22°C° 0 mm 4 mps 749 mmHg 64%
    20:00 +20°C° 0 mm 3 mps 749 mmHg 71%
    21:00 +19°C° 0 mm 3 mps 749 mmHg 78%
    22:00 +17°C° 0 mm 2 mps 749 mmHg 85%
    23:00 +17°C° 0 mm 2 mps 748 mmHg 88%

    27 July, Saturday

    Time Temperature Precipitation Wind Pressure Humidity
    00:00 +16°C° 0 mm 2 mps 748 mmHg 90%
    01:00 +16°C° 0 mm 2 mps 748 mmHg 93%
    02:00 +16°C° 0 mm 2 mps 748 mmHg 94%
    03:00 +16°C° 0 mm 2 mps 748 mmHg 95%
    04:00 +16°C° 0 mm 2 mps 748 mmHg 97%
    05:00 +18°C° 0 mm 2 mps 748 mmHg 90%
    06:00 +19°C° 0 mm 3 mps 748 mmHg 83%
    07:00 +21°C° 0 mm 3 mps 748 mmHg 77%
    08:00 +22°C° 0 mm 4 mps 748 mmHg 71%
    09:00 +25°C° 0 mm 4 mps 748 mmHg 65%
    10:00 +26°C° 0 mm 4 mps 748 mmHg 59%
    11:00 +27°C° 0 mm 4 mps 748 mmHg 54%
    12:00 +28°C° 0 mm 4 mps 748 mmHg 50%
    13:00 +29°C° 0 mm 4 mps 747 mmHg 46%
    14:00 +29°C° 0 mm 5 mps 747 mmHg 47%
    15:00 +29°C° 0 mm 5 mps 747 mmHg 47%
    16:00 +29°C° 0 mm 5 mps 746 mmHg 48%
    17:00 +28°C° 0 mm 4 mps 746 mmHg 56%
    18:00 +27°C° 0 mm 4 mps 746 mmHg 63%
    19:00 +25°C° 0 mm 4 mps 746 mmHg 70%
    20:00 +23°C° 0 mm 4 mps 746 mmHg 75%
    21:00 +22°C° 0 mm 4 mps 746 mmHg 80%
    22:00 +21°C° 0 mm 3 mps 746 mmHg 85%
    23:00 +20°C° 0 mm 3 mps 746 mmHg 87%

    28 July, Sunday

    Time Temperature Precipitation Wind Pressure Humidity
    00:00 +20°C° 0 mm 3 mps 746 mmHg 89%
    01:00 +20°C° 0 mm 3 mps 746 mmHg 91%
    02:00 +19°C° 0 mm 3 mps 746 mmHg 92%
    03:00 +19°C° 0 mm 3 mps 746 mmHg 93%
    04:00 +19°C° 0 mm 3 mps 746 mmHg 94%
    05:00 +20°C° 0 mm 3 mps 746 mmHg 87%
    06:00 +22°C° 0 mm 3 mps 747 mmHg 80%
    07:00 +23°C° 0 mm 4 mps 747 mmHg 72%
    08:00 +26°C° 0 mm 4 mps 747 mmHg 65%
    09:00 +28°C° 0 mm 5 mps 747 mmHg 57%
    10:00 +29°C° 0 mm 5 mps 747 mmHg 49%
    11:00 +30°C° 0 mm 5 mps 747 mmHg 47%
    12:00 +32°C° 0 mm 5 mps 747 mmHg 45%
    13:00 +32°C° 0 mm 5 mps 747 mmHg 42%
    14:00 +32°C° 0 mm 4 mps 747 mmHg 45%
    15:00 +30°C° 0 mm 4 mps 747 mmHg 47%
    16:00 +30°C° 0 mm 4 mps 747 mmHg 49%
    17:00 +29°C° 0 mm 4 mps 747 mmHg 54%
    18:00 +27°C° 0 mm 4 mps 747 mmHg 59%
    19:00 +26°C° 0 mm 3 mps 747 mmHg 64%
    20:00 +25°C° 0 mm 3 mps 747 mmHg 69%
    21:00 +22°C° 0 mm 3 mps 747 mmHg 75%
    22:00 +21°C° 0 mm 3 mps 747 mmHg 80%
    23:00 +20°C° 0 mm 3 mps 748 mmHg 81%
    Show more